| time (UTC) | temp C | wind direction | speed KPH | gust KPH | rain 1hr cm | rain 24hr cm | rain mn cm | humidity % | barometer mb |
| 20260504050126 | 7 | 195 | 9.7 | 11.3 | 0.00 | 0.05 | 0.05 | 91 | 997.5 |
| 20260504044621 | 7 | 184 | 6.4 | 6.4 | 0.00 | 0.05 | 0.05 | 91 | 997.2 |
| 20260504043118 | 7 | 208 | 11.3 | 12.9 | 0.00 | 0.05 | 0.05 | 91 | 998.0 |
| 20260504041613 | 7 | 224 | 8.0 | 9.7 | 0.18 | 0.05 | 0.05 | 91 | 998.0 |
| 20260504040109 | 7 | 222 | 9.7 | 11.3 | 0.00 | 0.10 | 0.10 | 89 | 997.7 |
| 20260504034606 | 7 | 195 | 8.0 | 12.9 | 0.00 | 0.10 | 0.10 | 91 | 997.9 |
| 20260504033103 | 7 | 196 | 8.0 | 9.7 | 0.00 | 0.10 | 0.10 | 91 | 997.8 |
| 20260504031600 | 7 | 165 | 3.2 | 4.8 | 0.00 | 0.10 | 0.10 | 90 | 998.0 |
| 20260504030055 | 7 | 198 | 9.7 | 9.7 | 0.00 | 0.10 | 0.10 | 89 | 997.9 |
| 20260504024552 | 7 | 194 | 6.4 | 9.7 | 0.00 | 0.10 | 0.10 | 87 | 998.2 |
| 20260504023047 | 7 | 215 | 6.4 | 6.4 | 0.00 | 0.10 | 0.10 | 87 | 998.3 |
| 20260504021543 | 7 | 264 | 8.0 | 9.7 | 0.00 | 0.10 | 0.10 | 85 | 998.4 |
| 20260504020039 | 7 | 189 | 14.5 | 17.7 | 0.13 | 0.08 | 0.08 | 81 | 998.5 |
| 20260504014534 | 7 | 202 | 8.0 | 9.7 | 0.18 | 0.03 | 0.03 | 75 | 998.4 |
| 20260504013032 | 8 | 220 | 8.0 | 9.7 | 0.00 | 0.00 | 0.00 | 68 | 998.6 |
| 20260504011529 | 8 | 210 | 8.0 | 11.3 | 0.00 | 0.00 | 0.00 | 59 | 998.5 |
| 20260504010029 | 8 | 191 | 6.4 | 6.4 | 0.00 | 0.00 | 0.00 | 55 | 998.4 |
| 20260504004527 | 8 | 145 | 1.6 | 1.6 | 0.00 | 0.00 | 0.00 | 51 | 998.1 |
| 20260504003023 | 8 | 165 | 3.2 | 3.2 | 0.00 | 0.00 | 0.00 | 49 | 998.3 |
| 20260504001520 | 8 | 222 | 8.0 | 6.4 | 0.00 | 0.00 | 0.00 | 45 | 998.1 |
| 20260504000016 | 9 | 264 | 9.7 | 12.9 | 0.00 | 0.00 | 0.00 | 41 | 998.0 |
| 20260503234515 | 9 | 215 | 11.3 | 12.9 | 0.00 | 0.00 | 0.00 | 37 | 998.2 |
| 20260503233011 | 9 | 222 | 14.5 | 17.7 | 0.00 | 0.00 | 0.00 | 35 | 998.5 |
| 20260503231509 | 9 | 183 | 4.8 | 4.8 | 0.00 | 0.00 | 0.00 | 35 | 998.4 |
| 20260503230006 | 9 | 170 | 4.8 | 6.4 | 0.00 | 0.00 | 0.00 | 37 | 998.2 |
| 20260503224501 | 10 | 246 | 9.7 | 9.7 | 0.00 | 0.00 | 0.00 | 36 | 998.3 |
| 20260503222957 | 10 | 259 | 8.0 | 11.3 | 0.00 | 0.00 | 0.00 | 38 | 998.5 |
| 20260503221452 | 10 | 206 | 11.3 | 14.5 | 0.00 | 0.00 | 0.00 | 37 | 998.6 |
| 20260503215948 | 10 | 239 | 14.5 | 16.1 | 0.00 | 0.00 | 0.00 | 36 | 998.5 |
| 20260503214446 | 10 | 228 | 11.3 | 12.9 | 0.00 | 0.00 | 0.00 | 39 | 998.5 |
| 20260503212943 | 11 | 240 | 12.9 | 14.5 | 0.00 | 0.00 | 0.00 | 40 | 998.4 |
| 20260503211440 | 11 | 216 | 16.1 | 22.5 | 0.00 | 0.00 | 0.00 | 38 | 998.5 |
| 20260503205939 | 10 | 215 | 16.1 | 16.1 | 0.00 | 0.00 | 0.00 | 43 | 998.9 |
| 20260503204436 | 10 | 234 | 17.7 | 20.9 | 0.00 | 0.00 | 0.00 | 47 | 999.1 |
| 20260503202933 | 10 | 278 | 14.5 | 14.5 | 0.00 | 0.00 | 0.00 | 46 | 999.1 |
| 20260503201432 | 11 | 215 | 14.5 | 22.5 | 0.00 | 0.00 | 0.00 | 41 | 999.3 |
| 20260503195928 | 10 | 240 | 17.7 | 22.5 | 0.00 | 0.00 | 0.00 | 41 | 999.2 |
| 20260503194424 | 10 | 244 | 20.9 | 27.4 | 0.00 | 0.00 | 0.00 | 43 | 999.4 |
| 20260503192923 | 10 | 262 | 12.9 | 14.5 | 0.00 | 0.00 | 0.00 | 39 | 999.7 |
| 20260503191419 | 10 | 257 | 17.7 | 22.5 | 0.00 | 0.00 | 0.00 | 38 | 999.8 |
| 20260503185915 | 10 | 198 | 16.1 | 22.5 | 0.00 | 0.00 | 0.00 | 36 | 999.9 |
| 20260503184413 | 9 | 213 | 19.3 | 22.5 | 0.00 | 0.00 | 0.00 | 38 | 1000.3 |
| 20260503182909 | 10 | 233 | 17.7 | 25.7 | 0.00 | 0.00 | 0.00 | 36 | 1000.2 |
| 20260503181408 | 10 | 267 | 12.9 | 17.7 | 0.00 | 0.00 | 0.00 | 38 | 1000.3 |
| 20260503175904 | 10 | 258 | 6.4 | 6.4 | 0.00 | 0.00 | 0.00 | 37 | 1000.4 |
| 20260503174402 | 10 | 225 | 17.7 | 17.7 | 0.00 | 0.00 | 0.00 | 34 | 1000.3 |
| 20260503172901 | 10 | 241 | 12.9 | 20.9 | 0.00 | 0.00 | 0.00 | 39 | 1000.4 |
| 20260503171358 | 9 | 248 | 19.3 | 25.7 | 0.00 | 0.00 | 0.00 | 37 | 1000.7 |
| 20260503131314 | 6 | 284 | 17.7 | 17.7 | 0.00 | 0.00 | 0.00 | 43 | 1002.3 |
| 20260503081225 | 3 | 150 | 1.6 | 1.6 | 0.00 | 0.00 | 0.00 | 78 | 1001.7 |
| 20260503072718 | 3 | 121 | 0.0 | 0.0 | 0.00 | 0.00 | 0.00 | 80 | 1001.9 |
| 20260503071214 | 3 | 157 | 3.2 | 3.2 | 0.00 | 0.00 | 0.00 | 81 | 1001.8 |